WX3I Weather Reports


Display with metric or nautical units.
time (UTC)temp
F
wind
direction
speed
MPH
gust
MPH
rain 1hr
in
rain 24hr
in
rain mn
in
humidity
%
barometer
mb
20260505122005 65 258 3.0 9.0 0.00 0.00 0.00 58 1013.1
20260505121504 65 65 2.0 5.0 0.00 0.00 0.00 57 1013.1
20260505121005 64 348 2.0 7.0 0.00 0.00 0.00 59 1013.0
20260505120504 64 162 1.0 6.0 0.00 0.00 0.00 59 1013.0
20260505120004 63 241 3.0 7.0 0.00 0.00 0.00 59 1013.0
20260505115004 63 54 1.0 3.0 0.00 0.00 0.00 61 1013.0
20260505114504 63 218 3.0 9.0 0.00 0.00 0.00 61 1013.1
20260505114004 62 177 1.0 5.0 0.00 0.00 0.00 61 1013.0
20260505113504 62 184 0.0 3.0 0.00 0.00 0.00 62 1013.0
20260505113004 62 217 2.0 5.0 0.00 0.00 0.00 62 1013.0
20260505112504 62 203 1.0 6.0 0.00 0.00 0.00 62 1012.9
20260505111504 61 225 1.0 5.0 0.00 0.00 0.00 64 1012.7
20260505111004 61 236 1.0 3.0 0.00 0.00 0.00 64 1012.7
20260505110504 60 217 2.0 7.0 0.00 0.00 0.00 64 1012.6
20260505102004 60 188 1.0 7.0 0.00 0.00 0.00 66 1012.5
20260505101504 60 144 1.0 3.0 0.00 0.00 0.00 66 1012.4
20260505101004 60 290 1.0 3.0 0.00 0.00 0.00 66 1012.4
20260505100505 60 223 1.0 5.0 0.00 0.00 0.00 65 1012.2
20260505100004 60 192 2.0 6.0 0.00 0.00 0.00 65 1012.2
20260505095504 60 195 1.0 5.0 0.00 0.00 0.00 64 1012.2
20260505095004 60 254 1.0 5.0 0.00 0.00 0.00 65 1012.2
20260505094504 60 206 2.0 5.0 0.00 0.00 0.00 65 1012.0
20260505094004 60 192 3.0 6.0 0.00 0.00 0.00 64 1012.0
20260505093004 61 210 4.0 8.0 0.00 0.00 0.00 64 1011.9
20260505092504 60 198 4.0 9.0 0.00 0.00 0.00 64 1012.0
20260505092004 60 203 4.0 7.0 0.00 0.00 0.00 65 1012.0
20260505090505 60 199 4.0 7.0 0.00 0.00 0.00 64 1012.0
20260505085504 61 189 4.0 8.0 0.00 0.00 0.00 64 1011.9
20260505085004 61 204 3.0 7.0 0.00 0.00 0.00 63 1011.8
20260505084504 61 218 4.0 8.0 0.00 0.00 0.00 63 1011.8
20260505084004 60 206 4.0 9.0 0.00 0.00 0.00 63 1011.8
20260505083504 60 213 2.0 7.0 0.00 0.00 0.00 64 1011.9
20260505083004 60 193 1.0 7.0 0.00 0.00 0.00 64 1012.1
20260505082504 60 206 2.0 6.0 0.00 0.00 0.00 65 1012.0
20260505081504 61 188 2.0 7.0 0.00 0.00 0.00 63 1012.0
20260505081004 61 200 2.0 7.0 0.00 0.00 0.00 63 1012.1
20260505080505 61 252 1.0 3.0 0.00 0.00 0.00 63 1012.1
20260505080004 61 167 1.0 3.0 0.00 0.00 0.00 63 1011.9
20260505075504 61 201 1.0 3.0 0.00 0.00 0.00 62 1011.9
20260505075004 62 203 2.0 7.0 0.00 0.00 0.00 61 1012.0
20260505074504 62 205 3.0 6.0 0.00 0.00 0.00 61 1012.0
20260505074004 62 215 4.0 8.0 0.00 0.00 0.00 60 1012.0
20260505073504 62 208 3.0 6.0 0.00 0.00 0.00 60 1012.1
20260505072504 62 175 1.0 5.0 0.00 0.00 0.00 59 1011.9
20260505072004 62 190 2.0 8.0 0.00 0.00 0.00 58 1012.0
20260505071505 62 249 2.0 5.0 0.00 0.00 0.00 58 1012.0
20260505071004 62 78 2.0 7.0 0.00 0.00 0.00 59 1011.9
20260505070504 62 90 0.0 7.0 0.00 0.00 0.00 59 1012.0
20260505070004 62 190 2.0 6.0 0.00 0.00 0.00 59 1012.0
20260505065504 62 222 3.0 8.0 0.00 0.00 0.00 59 1012.0
20260505065004 62 216 3.0 6.0 0.00 0.00 0.00 59 1012.0
20260505064504 62 205 3.0 7.0 0.00 0.00 0.00 59 1012.0
20260505064004 62 214 3.0 8.0 0.00 0.00 0.00 59 1011.9
20260505063504 61 179 4.0 8.0 0.00 0.00 0.00 60 1012.0
20260505062504 61 191 4.0 7.0 0.00 0.00 0.00 60 1012.1
20260505062004 61 194 3.0 9.0 0.00 0.00 0.00 60 1012.1
20260505061504 62 210 3.0 8.0 0.00 0.00 0.00 58 1012.0
20260505061004 61 209 3.0 8.0 0.00 0.00 0.00 58 1011.9
20260505055004 61 202 3.0 7.0 0.00 0.00 0.00 59 1012.0
20260505054504 61 194 3.0 9.0 0.00 0.00 0.00 58 1012.1
20260505054004 61 216 3.0 6.0 0.00 0.00 0.00 58 1012.0
20260505053504 61 193 5.0 7.0 0.00 0.00 0.00 58 1011.9
20260505053004 61 189 4.0 8.0 0.00 0.00 0.00 57 1011.9
20260505052504 61 198 5.0 12.0 0.00 0.00 0.00 56 1012.0
20260505052004 61 216 5.0 9.0 0.00 0.00 0.00 57 1012.0
20260505051505 61 202 6.0 9.0 0.00 0.00 0.00 57 1012.0
20260505051004 61 210 5.0 10.0 0.00 0.00 0.00 56 1012.1
20260505050505 61 216 3.0 8.0 0.00 0.00 0.00 56 1012.1
20260505041504 62 218 5.0 8.0 0.00 0.00 0.00 52 1012.1
20260505041004 62 167 3.0 8.0 0.00 0.00 0.00 51 1012.0
20260505040505 62 202 4.0 8.0 0.00 0.00 0.00 51 1011.8
20260505040005 62 217 5.0 10.0 0.00 0.00 0.00 50 1011.8
20260505035505 62 201 5.0 9.0 0.00 0.00 0.00 50 1011.8
20260505035004 62 199 4.0 8.0 0.00 0.00 0.00 50 1011.8
20260505034504 62 197 5.0 8.0 0.00 0.00 0.00 50 1011.8
20260505034004 63 198 5.0 12.0 0.00 0.00 0.00 49 1011.8
20260505033504 63 213 6.0 9.0 0.00 0.00 0.00 49 1011.9
20260505033004 63 191 5.0 8.0 0.00 0.00 0.00 49 1011.9
20260505032504 63 205 3.0 8.0 0.00 0.00 0.00 48 1011.9
20260505032004 63 209 4.0 7.0 0.00 0.00 0.00 48 1012.0
20260505031504 63 197 5.0 10.0 0.00 0.00 0.00 47 1012.0
20260505030504 63 218 4.0 9.0 0.00 0.00 0.00 47 1012.0
20260505025504 64 203 5.0 9.0 0.00 0.00 0.00 47 1012.0
20260505025004 64 198 5.0 12.0 0.00 0.00 0.00 46 1011.9
20260505024504 64 205 5.0 8.0 0.00 0.00 0.00 46 1012.0
20260505023504 64 205 5.0 10.0 0.00 0.00 0.00 45 1012.2
20260505022504 64 210 4.0 8.0 0.00 0.00 0.00 46 1012.2
20260505022004 64 188 4.0 9.0 0.00 0.00 0.00 46 1012.2
20260505021504 64 216 5.0 12.0 0.00 0.00 0.00 45 1012.3
20260505021004 64 215 4.0 10.0 0.00 0.00 0.00 45 1012.2
20260505020504 64 209 4.0 8.0 0.00 0.00 0.00 46 1012.2
20260505020004 65 181 3.0 8.0 0.00 0.00 0.00 45 1012.2
20260505015504 65 211 3.0 9.0 0.00 0.00 0.00 44 1012.2
20260505014505 65 209 2.0 7.0 0.00 0.00 0.00 45 1012.1
20260505014004 65 212 3.0 8.0 0.00 0.00 0.00 46 1012.2
20260505013505 65 207 2.0 6.0 0.00 0.00 0.00 45 1012.2
20260505013004 65 211 3.0 9.0 0.00 0.00 0.00 45 1012.1
20260505012004 65 205 3.0 9.0 0.00 0.00 0.00 44 1012.1
20260505011504 65 218 4.0 9.0 0.00 0.00 0.00 44 1012.1
20260505011003 64 214 3.0 6.0 0.00 0.00 0.00 44 1012.0
20260505010504 65 213 3.0 7.0 0.00 0.00 0.00 45 1011.9
20260505010004 65 212 2.0 5.0 0.00 0.00 0.00 44 1011.8
20260505005504 65 205 3.0 7.0 0.00 0.00 0.00 44 1011.8
20260505004504 65 195 2.0 7.0 0.00 0.00 0.00 44 1011.7
20260505004004 65 199 1.0 3.0 0.00 0.00 0.00 44 1011.6
20260505003505 65 195 1.0 2.0 0.00 0.00 0.00 43 1011.6
20260505003004 65 218 1.0 3.0 0.00 0.00 0.00 43 1011.6
20260505002503 66 225 1.0 7.0 0.00 0.00 0.00 43 1011.6
20260505001504 66 210 2.0 3.0 0.00 0.00 0.00 42 1011.5
20260505001004 66 196 3.0 7.0 0.00 0.00 0.00 41 1011.5
20260505000504 67 225 2.0 5.0 0.00 0.00 0.00 41 1011.4
20260505000004 67 208 2.0 5.0 0.00 0.00 0.00 41 1011.4
20260504235004 67 184 2.0 6.0 0.00 0.00 0.00 40 1011.4
20260504234504 67 191 1.0 5.0 0.00 0.00 0.00 40 1011.4
20260504233504 68 207 2.0 5.0 0.00 0.00 0.00 39 1011.4
20260504233004 68 205 3.0 7.0 0.00 0.00 0.00 38 1011.4
20260504232506 68 190 1.0 9.0 0.00 0.00 0.00 39 1011.2
20260504232004 68 199 2.0 8.0 0.00 0.00 0.00 38 1011.3
20260504231504 69 192 3.0 8.0 0.00 0.00 0.00 37 1011.3
20260504231004 69 184 3.0 7.0 0.00 0.00 0.00 38 1011.3
20260504230504 69 198 5.0 9.0 0.00 0.00 0.00 37 1011.2
20260504230004 69 204 3.0 7.0 0.00 0.00 0.00 38 1011.3
20260504225504 69 200 1.0 7.0 0.00 0.00 0.00 38 1011.3
20260504225005 69 220 3.0 7.0 0.00 0.00 0.00 37 1011.2
20260504224503 69 205 2.0 7.0 0.00 0.00 0.00 37 1011.2
20260504224004 69 253 2.0 7.0 0.00 0.00 0.00 36 1011.3
20260504223504 69 166 1.0 6.0 0.00 0.00 0.00 38 1011.3
20260504223004 69 211 3.0 9.0 0.00 0.00 0.00 37 1011.4
20260504221504 70 188 5.0 10.0 0.00 0.00 0.00 37 1011.4
20260504221004 70 142 2.0 7.0 0.00 0.00 0.00 38 1011.5
20260504220504 70 200 3.0 8.0 0.00 0.00 0.00 37 1011.4
20260504220004 70 196 4.0 9.0 0.00 0.00 0.00 37 1011.4
20260504215504 69 185 1.0 9.0 0.00 0.00 0.00 38 1011.5
20260504214504 70 227 3.0 9.0 0.00 0.00 0.00 38 1011.5
20260504214004 70 239 2.0 6.0 0.00 0.00 0.00 38 1011.6
20260504213504 70 221 2.0 10.0 0.00 0.00 0.00 39 1011.5
20260504212504 70 201 1.0 5.0 0.00 0.00 0.00 38 1011.6
20260504212004 70 70 2.0 7.0 0.00 0.00 0.00 38 1011.6
20260504211504 70 233 3.0 13.0 0.00 0.00 0.00 38 1011.4
20260504211004 70 194 3.0 8.0 0.00 0.00 0.00 37 1011.5
20260504210004 70 232 2.0 9.0 0.00 0.00 0.00 38 1011.5
20260504205504 71 223 3.0 6.0 0.00 0.00 0.00 38 1011.5
20260504205004 71 340 2.0 6.0 0.00 0.00 0.00 38 1011.5
20260504204505 71 162 2.0 8.0 0.00 0.00 0.00 39 1011.5
20260504203504 71 179 2.0 8.0 0.00 0.00 0.00 38 1011.6
20260504203004 71 212 2.0 7.0 0.00 0.00 0.00 37 1011.6
20260504202504 71 178 2.0 6.0 0.00 0.00 0.00 38 1011.7
20260504202004 71 207 2.0 7.0 0.00 0.00 0.00 38 1011.7
20260504201504 71 211 2.0 10.0 0.00 0.00 0.00 38 1011.7
20260504201004 71 148 2.0 9.0 0.00 0.00 0.00 37 1011.7
20260504200505 71 258 2.0 7.0 0.00 0.00 0.00 38 1011.7
20260504195504 71 179 2.0 7.0 0.00 0.00 0.00 38 1011.9
20260504195004 71 258 3.0 8.0 0.00 0.00 0.00 37 1011.9
20260504194504 71 193 3.0 7.0 0.00 0.00 0.00 37 1011.8
20260504194004 70 289 2.0 8.0 0.00 0.00 0.00 36 1011.9
20260504193504 70 200 2.0 7.0 0.00 0.00 0.00 38 1012.0
20260504193004 70 198 4.0 9.0 0.00 0.00 0.00 37 1012.0
20260504192503 70 205 2.0 8.0 0.00 0.00 0.00 39 1012.1
20260504192004 70 200 3.0 10.0 0.00 0.00 0.00 38 1012.1
20260504191504 70 63 3.0 8.0 0.00 0.00 0.00 39 1012.2
20260504191004 70 228 4.0 9.0 0.00 0.00 0.00 39 1012.3
20260504190504 70 208 4.0 8.0 0.00 0.00 0.00 38 1012.2
20260504190004 70 345 4.0 9.0 0.00 0.00 0.00 38 1012.3
20260504185004 70 209 4.0 9.0 0.00 0.00 0.00 38 1012.4
20260504184504 70 178 3.0 8.0 0.00 0.00 0.00 37 1012.6
20260504184004 69 212 1.0 7.0 0.00 0.00 0.00 39 1012.7
20260504183504 68 209 7.0 12.0 0.00 0.00 0.00 38 1012.6
20260504183005 68 216 5.0 9.0 0.00 0.00 0.00 38 1012.7
20260504182504 68 244 6.0 10.0 0.00 0.00 0.00 37 1012.7
20260504182004 69 205 3.0 10.0 0.00 0.00 0.00 37 1012.9
20260504181504 69 230 2.0 7.0 0.00 0.00 0.00 37 1012.9
20260504180504 69 187 3.0 14.0 0.00 0.00 0.00 39 1013.1
20260504180004 69 208 3.0 7.0 0.00 0.00 0.00 37 1013.2
20260504175004 69 320 2.0 7.0 0.00 0.00 0.00 38 1013.2
20260504174504 69 348 1.0 6.0 0.00 0.00 0.00 39 1013.3
20260504174004 69 188 4.0 9.0 0.00 0.00 0.00 38 1013.4
20260504173504 69 254 2.0 8.0 0.00 0.00 0.00 39 1013.6
20260504173004 69 94 2.0 6.0 0.00 0.00 0.00 38 1013.5
20260504172004 68 324 3.0 7.0 0.00 0.00 0.00 37 1013.5
20260504171504 68 212 5.0 9.0 0.00 0.00 0.00 38 1013.6
20260504171004 67 182 2.0 9.0 0.00 0.00 0.00 38 1013.8
20260504170504 68 225 3.0 13.0 0.00 0.00 0.00 39 1013.9
20260504151004 65 212 3.0 7.0 0.00 0.00 0.00 43 1015.1
20260504150504 64 310 4.0 7.0 0.00 0.00 0.00 43 1015.2
20260504141004 60 210 5.0 9.0 0.00 0.00 0.00 52 1015.2
20260504140504 60 194 4.0 7.0 0.00 0.00 0.00 53 1015.2
20260504130504 56 215 5.0 8.0 0.00 0.00 0.00 62 1015.6